This demonstration page uses our WeatherBlox Daily Observations layout. Learn more.

Left ArrowRight Arrow

34.74481, -87.66753

Hourly Observations for February 26, 2020

Temp ( °F °C ) Dew Point ( °F °C ) Humidity (%) Winds ( mph kmh ) Pressure ( in mb ) Visibility ( mi km ) Precip ( " mm )
12:53 am 00:53 Cloudy 49 9.4 45 7.2 86 86 W 7 11 29.95 1014 10 16 0.00 0.00
1:53 am 01:53 Cloudy 48 8.9 44 6.7 86 86 WNW 5 7 29.95 1014 10 16 0.00 0.00
2:53 am 02:53 Clear 46 7.8 42 5.6 86 86 Calm 29.91 1013 10 16 0.00 0.00
3:53 am 03:53 Cloudy 45 7.2 42 5.6 90 90 WNW 6 9 29.93 1014 10 16 0.00 0.00
4:07 am 04:07 Cloudy 46 7.8 43 6.1 89 89 WNW 7 11 29.95 1014 10 16 0.00 0.00
4:20 am 04:20 Cloudy 46 7.8 43 6.1 89 89 WNW 6 9 29.95 1014 10 16 0.00 0.00
4:53 am 04:53 Cloudy with Light Rain 47 8.3 42 5.6 83 83 NW 3 6 29.94 1014 10 16 0.00 0.00
5:08 am 05:08 Cloudy with Light Rain 46 7.8 42 5.6 86 86 WNW 5 7 29.96 1015 10 16 0.01 0.25
5:41 am 05:41 Cloudy with Light Rain 46 7.8 43 6.1 89 89 W 6 9 29.97 1015 9 14 0.05 1.27
5:48 am 05:48 Cloudy with Light Rain 46 8 43 6 87 87 W 5 7 29.98 1015 9 14 0.05 1.27
5:53 am 05:53 Cloudy with Light Rain 46 7.8 43 6.1 89 89 W 5 7 29.96 1015 10 16 0.05 1.27
6:16 am 06:16 Cloudy with Light Rain 46 7.8 43 6.1 89 89 WNW 5 7 29.97 1015 8 13 0.01 0.25
6:31 am 06:31 Cloudy with Light Rain 46 7.8 43 6.1 89 89 WNW 5 7 29.97 1015 10 16 0.01 0.25
6:53 am 06:53 Cloudy 46 7.8 43 6.1 89 89 W 6 9 29.96 1015 10 16 0.01 0.25
7:53 am 07:53 Cloudy 44 6.7 41 5 89 89 NNW 6 9 29.98 1015 7 11 0.00 0.00
8:13 am 08:13 Cloudy 44 6.7 41 5 89 89 NNW 8 13 30.00 1016 7 11 0.00 0.00
8:24 am 08:24 Cloudy 44 6.7 41 5 89 89 NW 9 15 30.01 1016 8 13 0.00 0.00
8:53 am 08:53 Cloudy with Mist and Fog 44 6.7 41 5 89 89 NW 9 15 30.01 1016 4 6 0.00 0.00
9:28 am 09:28 Cloudy 44 6.7 40 4.4 85 85 NW 7 11 30.03 1017 10 16 0.00 0.00
9:53 am 09:53 Cloudy 43 6.1 38 3.3 82 82 NW 15 24 30.02 1017 10 16 0.00 0.00
10:08 am 10:08 Cloudy 44 6.7 38 3.3 79 79 NW 10 17 30.03 1017 10 16 0.00 0.00
10:53 am 10:53 Cloudy 43 6.1 37 2.8 80 80 NW 12 19 30.04 1017 10 16 0.00 0.00
11:53 am 11:53 Cloudy 43 6.1 35 1.7 74 74 NW 13 20 30.03 1017 10 16 0.00 0.00
12:45 pm 12:45 Cloudy 44 6.7 35 1.7 71 71 NW 10 17 30.03 1017 10 16 0.00 0.00
12:53 pm 12:53 Cloudy 44 6.7 35 1.7 71 71 WNW 14 22 30.02 1017 10 16 0.00 0.00
1:53 pm 13:53 Cloudy 46 7.8 34 1.1 63 63 WNW 17 28 30.02 1017 10 16 0.00 0.00
2:23 pm 14:23 Mostly Cloudy 46 7.8 33 0.6 61 61 NW 12 19 30.04 1017 10 16 0.00 0.00
2:36 pm 14:36 Mostly Cloudy with Light Rain 46 7.8 34 1.1 63 63 WNW 25 41 30.05 1018 10 16 0.00 0.00
2:53 pm 14:53 Mostly Cloudy 47 8.3 33 0.6 59 59 NW 16 26 30.05 1018 10 16 0.00 0.00
3:53 pm 15:53 Cloudy 43 6.1 30 -1.1 60 60 WNW 20 31 30.10 1019 10 16 0.00 0.00
4:53 pm 16:53 Cloudy 41 5 30 -1.1 65 65 NW 15 24 30.12 1020 10 16 0.00 0.00
5:18 pm 17:18 Cloudy 41 5 29 -1.7 62 62 NW 14 22 30.15 1021 10 16 0.00 0.00
5:53 pm 17:53 Cloudy 41 5 28 -2.2 60 60 NW 10 17 30.14 1021 10 16 0.00 0.00
6:53 pm 18:53 Cloudy 40 4.4 28 -2.2 63 63 NNW 12 19 30.15 1021 10 16 0.00 0.00
7:50 pm 19:50 Cloudy 39 4 28 -2 65 65 NNW 9 15 30.20 1023 7 11 0.00 0.00
7:53 pm 19:53 Cloudy 39 3.9 29 -1.7 67 67 NNW 10 17 30.18 1022 7 11 0.00 0.00
8:32 pm 20:32 Cloudy 39 3.9 28 -2.2 65 65 NW 12 19 30.22 1023 10 16 0.01 0.25
8:53 pm 20:53 Cloudy 39 3.9 27 -2.8 62 62 NW 14 22 30.21 1023 10 16 0.01 0.25
9:53 pm 21:53 Cloudy 38 3.3 27 -2.8 65 65 NNW 10 17 30.23 1024 10 16 0.00 0.00
10:53 pm 22:53 Cloudy 38 3.3 25 -3.9 60 60 NW 9 15 30.23 1024 10 16 0.00 0.00
11:53 pm 23:53 Cloudy 37 2.8 25 -3.9 62 62 WNW 9 15 30.24 1024 10 16 0.00 0.00

Powered by AerisWeather